Regional Weather Roundup
Issued by NWS Cleveland, OH

Home | Current Version | Previous Version | Graphics & Text | Print | Product List | Glossary On
Versions: 1 2 3 4 5 6 7 8 9 10 11 12 13 14 15 16 17 18 19 20 21 22 23 24 25 26 27 28 29 30 31 32 33 34 35 36 37 38 39 40 41 42 43 44 45 46 47 48 49 50
000
ASUS41 KCLE 010310
RWRCLE
OHIO REGIONAL WEATHER ROUNDUP
NATIONAL WEATHER SERVICE WILMINGTON, OH
1100 PM EDT FRI SEP 30 2016

NOTE: "FAIR" INDICATES FEW OR NO CLOUDS BELOW 12,000 FEET WITH NO
SIGNIFICANT WEATHER AND/OR OBSTRUCTIONS TO VISIBILITY.

OHZ001>008-015>018-024>027-034-035-043-044-010400-
   NORTHWEST OHIO

CITY           SKY/WX    TMP DP  RH WIND       PRES   REMARKS
DEFIANCE       CLOUDY    61  58  90 NE7       30.05R
FINDLAY        MOCLDY    62  57  83 NE10      30.03S
TOLEDO EXPRESS CLOUDY    59  59 100 E5        30.06S
TOLEDO EXEC    CLOUDY    62  60  93 E6        30.06F
LIMA           CLOUDY    60  60 100 E9        30.03S
$$

OHZ009>014-019>023-028>033-038-089-010400-
   NORTHEAST OHIO

CITY           SKY/WX    TMP DP  RH WIND       PRES   REMARKS
CLE-HOPKINS    CLOUDY    61  55  81 E7        30.10F
CLE-LAKEFRONT  CLOUDY    62  56  80 E10       30.08F
CUY CO. ARPT   CLOUDY    61  59  94 E9        30.09F
LORAIN-ELYRIA  CLOUDY    59  55  87 E7        30.08F
ASHTABULA      CLOUDY    59  56  89 SE7       30.13S
AKRON-CANTON   CLOUDY    59  55  87 E12       30.08F
WOOSTER        LGT RAIN  58  56  93 E9        30.07F
MANSFIELD      CLOUDY    59  58  96 E8        30.05F
YOUNGSTOWN     CLOUDY    58  54  86 E13       30.11S
$$

OHZ042-051>053-060>062-070>072-077>081-010400-
  SOUTHWEST OHIO

CITY           SKY/WX    TMP DP  RH WIND       PRES   REMARKS
CINC-COVINGTON CLOUDY    58  54  86 CALM      30.02S
CINC-LUNKEN    FAIR      54  54 100 CALM      30.04R FOG
HAMILTON       FAIR      53  52  96 CALM      30.03S FOG
DAYTON         CLOUDY    56  56 100 CALM      30.02F FOG
WRIGHT-PAT AFB PTCLDY    56  56 100 N2        30.01F FOG
DAYTON GENERAL FAIR      57  53  86 S5        30.02S
WILMINGTON     FOG       53  53 100 CALM      30.03S VSB 1/2
$$

OHZ036-037-039>041-045>050-054>059-063>069-073>076-082>088-010400-
  CENTRAL AND SOUTHEAST OHIO

CITY           SKY/WX    TMP DP  RH WIND       PRES   REMARKS
COLUMBUS       CLOUDY    62  62 100 SE5       30.02S
OSU AIRPORT    CLOUDY    62  61  96 E6        30.02S
BOLTON FIELD   CLOUDY    60  59  97 SW5       30.04R
RICKENBACK AFB CLOUDY    59  59 100 S3        30.03R
NEWARK         LGT RAIN  62  60  93 E5        30.03S FOG
MARION         CLOUDY    61  58  90 E8        30.04S
LANCASTER      CLOUDY    62  60  93 S5        30.03S
ZANESVILLE     RAIN      61  59  93 SE7       30.05R FOG
NEW PHILLY     CLOUDY    61  58  90 E7        30.07S
$$




USA.gov is the U.S. government's official web portal to all federal, state and local government web resources and services.